This is the latest recevied weather packets stored in our database for station/object TA2LKM-11. If no packets are shown the sender has not sent any weather packets the latest 10 day(s).
| Time | Temp. | Humidity | Pressure | Rain* | Wind** | Luminosity | Snow |
|---|---|---|---|---|---|---|---|
| 1788636841 | 26.11° C | 38% | 1015.8 hPa | - | - | - | - |
| 1788636753 | 25.56° C | 40% | 1015.9 hPa | - | - | - | - |
| 1788635852 | 26.11° C | 40% | 1015.7 hPa | - | - | - | - |
| 1788634951 | 25.56° C | 41% | 1015.7 hPa | - | - | - | - |
| 1788634050 | 26.11° C | 41% | 1015.5 hPa | - | - | - | - |
| 1788633961 | 26.11° C | 42% | 1015.5 hPa | - | - | - | - |
| 1788633061 | 25.56° C | 42% | 1015.5 hPa | - | - | - | - |
| 1788632160 | 26.67° C | 44% | 1015.2 hPa | - | - | - | - |
| 1788631259 | 27.22° C | 47% | 1015.1 hPa | - | - | - | - |
| 1788630358 | 27.78° C | 41% | 1015 hPa | - | - | - | - |
| 1788629457 | 27.78° C | 44% | 1014.8 hPa | - | - | - | - |
| 1788629368 | 27.78° C | 46% | 1014.9 hPa | - | - | - | - |
| 1788628467 | 27.78° C | 51% | 1014.7 hPa | - | - | - | - |
| 1788627567 | 27.78° C | 53% | 1014.5 hPa | - | - | - | - |
| 1788626666 | 27.78° C | 51% | 1014.3 hPa | - | - | - | - |
| 1788625765 | 28.33° C | 51% | 1014.2 hPa | - | - | - | - |
| 1788624864 | 28.89° C | 46% | 1014.2 hPa | - | - | - | - |
| 1788623963 | 29.44° C | 46% | 1014.3 hPa | - | - | - | - |
| 1788623062 | 30° C | 42% | 1014.1 hPa | - | - | - | - |
| 1788622974 | 30.56° C | 42% | 1014.1 hPa | - | - | - | - |
| 1788622073 | 30.56° C | 41% | 1014.1 hPa | - | - | - | - |
| 1788621172 | 31.11° C | 39% | 1014.2 hPa | - | - | - | - |
| 1788620271 | 31.11° C | 40% | 1014.1 hPa | - | - | - | - |
| 1788619370 | 31.11° C | 42% | 1014.1 hPa | - | - | - | - |
| 1788618469 | 31.67° C | 43% | 1014.2 hPa | - | - | - | - |
* Rain since midnight (hover to see other rain measurements)
** Current wind speed in m/s (hover to see current wind gust speed)